Location: Bauerbach
(50.4985°N, 10.3912°E)
Time: 22:12:22
(UTC+00:00)

Cosmos 2084 - Pass Details

Date: 13 January 2026
Orbit: 536 x 564 km, 62.8° (Epoch: 17 February)

Event Time Altitude Azimuth Distance (km) Brightness Sun altitude
Exits shadow 06:26:14 - 258° (WSW) 2,373 6.1 -7.5°
Reaches altitude 10° 06:27:40 10° 265° (W) 1,849 5.5 -7.3°
Maximum altitude 06:31:24 31° 329° (NNW) 985 4.2 -6.8°
Drops below altitude 10° 06:35:08 10° 33° (NNE) 1,840 6.1 -6.3°
Sets 06:37:32 0° 44° (NE) 2,732 7.1 -5.9°
